Regional Weather Roundup
Issued by NWS Albany, NY

Home | Current Version | Previous Version | Graphics & Text | Print | Product List | Glossary On
Versions: 1 2 3 4 5 6 7 8 9 10 11 12 13 14 15 16 17 18 19 20 21 22 23 24 25 26 27
000
ASUS41 KALY 281710
RWRALY

NEW YORK STATE HOURLY WEATHER ROUNDUP
NATIONAL WEATHER SERVICE ALBANY NY
100 PM EDT SAT MAY 28 2016

NOTE: "FAIR" INDICATES FEW OR NO CLOUDS BELOW 12,000 FEET WITH NO
SIGNIFICANT WEATHER AND/OR NO OBSTRUCTIONS TO VISIBILITY.

NYZ032-033-038>043-046>054-057>066-NYZ062>081-082-084-281800-
EAST


CITY           SKY/WX    TMP DP  RH WIND       PRES   REMARKS
ALBANY         PTSUNNY   88  62  41 W6        30.09F
GLENS FALLS    PTSUNNY   87  63  44 CALM      30.08F
POUGHKEEPSIE   SUNNY     90  68  48 SW7       30.08F HX  94
NEWBURGH       MOSUNNY   86  70  58 W9        30.11F HX  90
MONTGOMERY     SUNNY     89  70  53 S8        30.08F HX  94
WHITE PLAINS   MOSUNNY   89  66  46 VRB5      30.11F HX  91
ISLIP          MOSUNNY   77  63  61 SW14      30.12F
NEW YORK CITY  MOSUNNY   90  70  51 S9        30.10F HX  95
CENTRAL PARK   SUNNY     89  65  44 VRB5      30.13F HX  91
$$

NYZ005>009-017-018-044>046-055-056-281800-
CENTRAL


CITY           SKY/WX    TMP DP  RH WIND       PRES   REMARKS
FULTON         SUNNY     90  66  45 VRB7      30.10S HX  92
SYRACUSE       PTSUNNY   89  62  40 VRB3      30.08F
ROME           SUNNY     86  63  45 W9        30.11F
ELMIRA         SUNNY     89  59  36 CALM      30.12S
BINGHAMTON     SUNNY     84  60  44 NW6       30.16F
MONTICELLO     SUNNY     84  63  48 NW8       30.17F
$$

NYZ026>034-041>043-087-281800-
NORTH


CITY           SKY/WX    TMP DP  RH WIND       PRES   REMARKS
WATERTOWN      CLOUDY    83  62  49 W6        30.10S
FORT DRUM      NOT AVBL
MASSENA        MOSUNNY   86  66  51 VRB3      30.09R
SARANAC LAKE   MOSUNNY   82  54  37 W7        30.13S
PLATTSBURGH    MOSUNNY   80  67  64 NE8       30.08S
$$

NYZ001>004-010>016-019>021-085-281800-
WEST


CITY           SKY/WX    TMP DP  RH WIND       PRES   REMARKS
NIAGARA FALLS  PTSUNNY   87  66  49 S8        30.09F
BUFFALO        PTSUNNY   85  64  49 SW8       30.10F
DUNKIRK        SUNNY     86  62  44 N8        30.11F
JAMESTOWN      SUNNY     81  64  57 CALM      30.16F
WELLSVILLE     MOSUNNY   83  62  49 NW7       30.20F
ROCHESTER      PTSUNNY   88  64  44 NW9       30.09S
PENN YAN       PTSUNNY   87  61  41 VRB6      30.13S
$$

             KEY
       WCI = WIND CHILL INDEX
       VSB = VISIBILITY
       HX  = HEAT INDEX
$$




USA.gov is the U.S. government's official web portal to all federal, state and local government web resources and services.